VLG615Q LEBB-EGKK

Flight info

Callsign VLG615Q
Flight time 1h 34m
Altitude 38000
Route BISKA P87 BELEN DCT DIDIG UP87 UPALO/N0427F340 UP87 REVTU UP88 VASUX
Aircraft A320/M-SDE3FGHIRWY/LB1

Departure

Time 2026-05-06 16:19
Airport Bilbao Airport (LEBB)

Arrival

Time 2026-05-06 17:54
Airport London Gatwick Airport (EGKK)
Time Latitude Longitude Altitude Speed Heading
2026-05-06 15:22 43.30424 -2.90634 126 ft 0 kts 26°
2026-05-06 16:09 43.30405 -2.90649 124 ft 3 kts 35°
2026-05-06 16:09 43.30386 -2.90670 125 ft 3 kts 52°
2026-05-06 16:10 43.30376 -2.90697 125 ft 3 kts 90°
2026-05-06 16:10 43.30377 -2.90714 123 ft 0 kts 120°
2026-05-06 16:12 43.30370 -2.90696 126 ft 6 kts 120°
2026-05-06 16:12 43.30345 -2.90635 124 ft 7 kts 119°
2026-05-06 16:13 43.30313 -2.90586 126 ft 7 kts 143°
2026-05-06 16:13 43.30277 -2.90554 126 ft 6 kts 147°
2026-05-06 16:13 43.30243 -2.90525 123 ft 5 kts 154°
2026-05-06 16:13 43.30214 -2.90533 126 ft 4 kts 210°
2026-05-06 16:14 43.30191 -2.90550 126 ft 3 kts 207°
2026-05-06 16:14 43.30172 -2.90563 125 ft 3 kts 207°
2026-05-06 16:14 43.30134 -2.90585 123 ft 5 kts 178°
2026-05-06 16:14 43.30103 -2.90535 125 ft 9 kts 119°
2026-05-06 16:15 43.30068 -2.90431 124 ft 15 kts 116°
2026-05-06 16:15 43.30021 -2.90306 127 ft 12 kts 117°
2026-05-06 16:15 43.29984 -2.90207 127 ft 11 kts 117°
2026-05-06 16:15 43.29950 -2.90117 127 ft 10 kts 117°
2026-05-06 16:16 43.29918 -2.90032 126 ft 10 kts 117°
2026-05-06 16:16 43.29888 -2.89952 124 ft 9 kts 116°
2026-05-06 16:16 43.29861 -2.89878 126 ft 8 kts 116°
2026-05-06 16:16 43.29837 -2.89809 126 ft 8 kts 116°
2026-05-06 16:17 43.29814 -2.89746 124 ft 7 kts 116°
2026-05-06 16:17 43.29794 -2.89689 126 ft 6 kts 116°
2026-05-06 16:17 43.29775 -2.89638 126 ft 6 kts 116°
2026-05-06 16:17 43.29755 -2.89594 125 ft 6 kts 137°
2026-05-06 16:18 43.29714 -2.89592 128 ft 6 kts 207°
2026-05-06 16:18 43.29672 -2.89646 126 ft 11 kts 227°
2026-05-06 16:18 43.29635 -2.89753 125 ft 14 kts 276°
2026-05-06 16:18 43.29648 -2.89801 124 ft 0 kts 296°
2026-05-06 16:19 43.29659 -2.89831 122 ft 26 kts 296°
2026-05-06 16:19 43.29862 -2.90397 127 ft 102 kts 296°
2026-05-06 16:19 43.30273 -2.91507 203 ft 151 kts 297°
2026-05-06 16:19 43.30735 -2.92739 1005 ft 145 kts 298°
2026-05-06 16:20 43.31201 -2.93968 1846 ft 145 kts 300°
2026-05-06 16:20 43.31689 -2.95284 2331 ft 166 kts 297°
2026-05-06 16:20 43.32274 -2.96779 2858 ft 190 kts 306°
2026-05-06 16:20 43.33213 -2.98220 3458 ft 215 kts 314°
2026-05-06 16:21 43.34347 -2.99740 4084 ft 240 kts 316°
2026-05-06 16:21 43.35600 -3.01343 4962 ft 251 kts 316°
2026-05-06 16:21 43.36892 -3.02992 5971 ft 256 kts 316°
2026-05-06 16:21 43.38201 -3.04682 6959 ft 260 kts 316°
2026-05-06 16:22 43.39620 -3.06261 7904 ft 267 kts 331°
2026-05-06 16:22 43.41434 -3.06895 8821 ft 277 kts 359°
2026-05-06 16:22 43.43317 -3.06224 9759 ft 288 kts 27°
2026-05-06 16:22 43.44783 -3.04293 10513 ft 304 kts 54°
2026-05-06 16:23 43.45819 -3.01608 10857 ft 331 kts 66°
2026-05-06 16:23 43.46564 -2.98536 11451 ft 345 kts 71°
2026-05-06 16:23 43.47509 -2.95485 12235 ft 349 kts 58°
2026-05-06 16:23 43.48975 -2.92827 13058 ft 350 kts 43°
2026-05-06 16:24 43.50880 -2.90744 13862 ft 351 kts 28°
2026-05-06 16:24 43.53099 -2.89329 14589 ft 352 kts 18°
2026-05-06 16:24 43.55406 -2.88144 15340 ft 355 kts 18°
2026-05-06 16:24 43.57727 -2.86942 16094 ft 358 kts 18°
2026-05-06 16:25 43.60068 -2.85722 16861 ft 361 kts 18°
2026-05-06 16:25 43.62428 -2.84487 17634 ft 364 kts 19°
2026-05-06 16:25 43.64802 -2.83242 18364 ft 367 kts 19°
2026-05-06 16:25 43.67199 -2.81981 18981 ft 370 kts 19°
2026-05-06 16:26 43.69668 -2.80941 19584 ft 372 kts 11°
2026-05-06 16:26 43.72204 -2.80125 20197 ft 376 kts 11°
2026-05-06 16:26 43.74758 -2.79305 20802 ft 379 kts 11°
2026-05-06 16:26 43.77341 -2.78470 21394 ft 382 kts 11°
2026-05-06 16:27 43.79942 -2.77626 21980 ft 386 kts 11°
2026-05-06 16:27 43.82563 -2.76770 22577 ft 389 kts 11°
2026-05-06 16:27 43.85202 -2.75904 23164 ft 392 kts 11°
2026-05-06 16:27 43.87864 -2.75032 23696 ft 395 kts 11°
2026-05-06 16:28 43.90548 -2.74153 24153 ft 398 kts 11°
2026-05-06 16:28 43.93260 -2.73334 24605 ft 400 kts
2026-05-06 16:28 43.96014 -2.72653 25054 ft 403 kts
2026-05-06 16:28 43.98790 -2.72064 25497 ft 405 kts
2026-05-06 16:29 44.01591 -2.71511 25955 ft 408 kts
2026-05-06 16:29 44.04410 -2.70955 26414 ft 410 kts
2026-05-06 16:29 44.07237 -2.70379 26854 ft 413 kts
2026-05-06 16:29 44.10090 -2.69772 27266 ft 416 kts
2026-05-06 16:30 44.12957 -2.69140 27689 ft 419 kts
2026-05-06 16:30 44.13889 -2.68932 27820 ft 420 kts
2026-05-06 16:30 44.18751 -2.67829 28510 ft 425 kts
2026-05-06 16:30 44.21676 -2.67164 28919 ft 428 kts
2026-05-06 16:31 44.24627 -2.66497 29327 ft 430 kts
2026-05-06 16:31 44.27594 -2.65833 29704 ft 433 kts
2026-05-06 16:31 44.30580 -2.65169 30074 ft 436 kts
2026-05-06 16:31 44.33581 -2.64504 30377 ft 439 kts
2026-05-06 16:32 44.36569 -2.63843 30648 ft 442 kts
2026-05-06 16:32 44.39613 -2.63166 30943 ft 444 kts
2026-05-06 16:32 44.42669 -2.62482 31237 ft 446 kts
2026-05-06 16:32 44.45740 -2.61792 31524 ft 449 kts
2026-05-06 16:33 44.48830 -2.61100 31848 ft 450 kts
2026-05-06 16:33 44.51919 -2.60406 32261 ft 449 kts
2026-05-06 16:33 44.55005 -2.59708 32653 ft 449 kts
2026-05-06 16:34 44.60173 -2.58545 33296 ft 449 kts
2026-05-06 16:34 44.63255 -2.57853 33695 ft 449 kts
2026-05-06 16:34 44.66339 -2.57158 34071 ft 449 kts
2026-05-06 16:34 44.69418 -2.56460 34377 ft 449 kts
2026-05-06 16:35 44.72505 -2.55757 34677 ft 450 kts
2026-05-06 16:35 44.75597 -2.55053 34966 ft 450 kts
2026-05-06 16:35 44.79697 -2.54118 35342 ft 451 kts
2026-05-06 16:35 44.81746 -2.53652 35521 ft 451 kts
2026-05-06 16:36 44.84854 -2.52949 35790 ft 452 kts
2026-05-06 16:36 44.87943 -2.52250 36056 ft 452 kts
2026-05-06 16:36 44.91056 -2.51545 36323 ft 453 kts
2026-05-06 16:36 44.94167 -2.50840 36582 ft 453 kts
2026-05-06 16:37 44.97283 -2.50134 36838 ft 454 kts
2026-05-06 16:37 45.00403 -2.49424 37080 ft 455 kts
2026-05-06 16:37 45.03527 -2.48710 37329 ft 455 kts
2026-05-06 16:37 45.06655 -2.47994 37574 ft 455 kts
2026-05-06 16:38 45.09778 -2.47276 37818 ft 456 kts
2026-05-06 16:38 45.12914 -2.46553 37950 ft 456 kts
2026-05-06 16:38 45.16049 -2.45828 37965 ft 456 kts
2026-05-06 16:39 45.22308 -2.44375 37956 ft 455 kts
2026-05-06 16:39 45.28560 -2.42937 37957 ft 455 kts
2026-05-06 16:40 45.34810 -2.41500 37953 ft 455 kts
2026-05-06 16:40 45.41065 -2.40054 37955 ft 455 kts
2026-05-06 16:41 45.47318 -2.38605 37956 ft 455 kts
2026-05-06 16:41 45.53571 -2.37150 37957 ft 456 kts
2026-05-06 16:42 45.59831 -2.35685 37962 ft 456 kts
2026-05-06 16:42 45.66085 -2.34209 37960 ft 456 kts
2026-05-06 16:43 45.72346 -2.32740 37952 ft 456 kts
2026-05-06 16:43 45.78607 -2.31279 37952 ft 456 kts
2026-05-06 16:44 45.84883 -2.29813 37951 ft 457 kts
2026-05-06 16:44 45.91154 -2.28338 37954 ft 457 kts
2026-05-06 16:45 45.97428 -2.26843 37948 ft 457 kts
2026-05-06 16:45 46.03695 -2.25358 37945 ft 457 kts
2026-05-06 16:46 46.09964 -2.23869 37941 ft 457 kts
2026-05-06 16:46 46.16228 -2.22337 37939 ft 457 kts
2026-05-06 16:47 46.22498 -2.20784 37939 ft 457 kts
2026-05-06 16:47 46.28724 -2.19257 37940 ft 457 kts
2026-05-06 16:48 46.34994 -2.17728 37942 ft 457 kts
2026-05-06 16:48 46.41260 -2.16195 37935 ft 457 kts
2026-05-06 16:49 46.47531 -2.14646 37927 ft 457 kts
2026-05-06 16:49 46.53799 -2.13087 37927 ft 457 kts
2026-05-06 16:50 46.60064 -2.11529 37928 ft 457 kts
2026-05-06 16:50 46.66334 -2.09983 37924 ft 457 kts
2026-05-06 16:51 46.72607 -2.08429 37921 ft 457 kts
2026-05-06 16:51 46.78867 -2.06871 37923 ft 457 kts
2026-05-06 16:52 46.85137 -2.05302 37922 ft 456 kts
2026-05-06 16:52 46.91395 -2.03725 37923 ft 457 kts
2026-05-06 16:53 46.97669 -2.02146 37903 ft 458 kts
2026-05-06 16:53 47.03959 -2.00580 37908 ft 459 kts
2026-05-06 16:54 47.10270 -1.99016 37910 ft 460 kts
2026-05-06 16:54 47.16586 -1.97458 37917 ft 460 kts
2026-05-06 16:55 47.22901 -1.95890 37922 ft 460 kts 10°
2026-05-06 16:55 47.29176 -1.94322 37923 ft 461 kts 10°
2026-05-06 16:56 47.35524 -1.93066 37924 ft 460 kts
2026-05-06 16:56 47.41910 -1.93630 37925 ft 460 kts 356°
2026-05-06 16:57 47.48295 -1.94318 37924 ft 460 kts 356°
2026-05-06 16:57 47.54680 -1.94983 37920 ft 460 kts 356°
2026-05-06 16:58 47.61071 -1.95626 37922 ft 460 kts 359°
2026-05-06 16:58 47.67372 -1.94391 37929 ft 458 kts 18°
2026-05-06 16:59 47.73391 -1.91344 37931 ft 457 kts 20°
2026-05-06 16:59 47.79411 -1.88260 37927 ft 457 kts 20°
2026-05-06 17:00 47.85429 -1.85189 37924 ft 457 kts 20°
2026-05-06 17:00 47.91434 -1.82130 37927 ft 456 kts 20°
2026-05-06 17:01 47.97435 -1.79057 37930 ft 456 kts 20°
2026-05-06 17:01 48.03430 -1.75974 37928 ft 456 kts 20°
2026-05-06 17:02 48.09643 -1.74204 37924 ft 457 kts
2026-05-06 17:02 48.16004 -1.74278 37919 ft 457 kts
2026-05-06 17:03 48.22368 -1.74361 37920 ft 458 kts
2026-05-06 17:03 48.28747 -1.74430 37912 ft 459 kts
2026-05-06 17:04 48.35131 -1.74506 37913 ft 459 kts
2026-05-06 17:04 48.41523 -1.74584 37919 ft 460 kts
2026-05-06 17:05 48.47930 -1.74666 37933 ft 460 kts
2026-05-06 17:05 48.54329 -1.74745 37937 ft 460 kts 360°
2026-05-06 17:06 48.60732 -1.74824 37933 ft 460 kts
2026-05-06 17:06 48.67135 -1.74901 37936 ft 460 kts 360°
2026-05-06 17:07 48.73533 -1.74980 37945 ft 459 kts 360°
2026-05-06 17:07 48.79921 -1.75060 37947 ft 459 kts 360°
2026-05-06 17:08 48.86308 -1.75130 37945 ft 459 kts 360°
2026-05-06 17:08 48.92696 -1.75189 37940 ft 459 kts
2026-05-06 17:09 48.99090 -1.75005 37936 ft 460 kts
2026-05-06 17:09 49.05336 -1.74692 37932 ft 460 kts
2026-05-06 17:10 49.11768 -1.74393 37924 ft 459 kts
2026-05-06 17:10 49.18145 -1.74151 37931 ft 458 kts
2026-05-06 17:11 49.24508 -1.73923 37932 ft 458 kts
2026-05-06 17:11 49.30877 -1.73677 37933 ft 457 kts
2026-05-06 17:12 49.37253 -1.73431 37953 ft 458 kts
2026-05-06 17:12 49.43628 -1.73179 37969 ft 458 kts
2026-05-06 17:13 49.50002 -1.72925 37982 ft 458 kts
2026-05-06 17:13 49.56295 -1.72687 37990 ft 458 kts
2026-05-06 17:13 49.59461 -1.72232 37757 ft 457 kts 11°
2026-05-06 17:14 49.62530 -1.71019 37481 ft 455 kts 20°
2026-05-06 17:14 49.65513 -1.69387 37219 ft 455 kts 20°
2026-05-06 17:14 49.68491 -1.67746 36954 ft 455 kts 21°
2026-05-06 17:14 49.71430 -1.66120 36703 ft 454 kts 20°
2026-05-06 17:15 49.74399 -1.64472 36434 ft 454 kts 20°
2026-05-06 17:15 49.77365 -1.62825 35919 ft 454 kts 20°
2026-05-06 17:15 49.80348 -1.61167 35038 ft 457 kts 20°
2026-05-06 17:15 49.83356 -1.59496 34134 ft 461 kts 20°
2026-05-06 17:16 49.86368 -1.57822 33478 ft 457 kts 20°
2026-05-06 17:16 49.89344 -1.56170 32857 ft 452 kts 20°
2026-05-06 17:16 49.92293 -1.54530 32213 ft 447 kts 20°
2026-05-06 17:16 49.95202 -1.52908 31595 ft 442 kts 21°
2026-05-06 17:17 49.98080 -1.51296 31006 ft 438 kts 20°
2026-05-06 17:17 50.00933 -1.49705 30425 ft 434 kts 20°
2026-05-06 17:17 50.03785 -1.48216 29829 ft 431 kts 19°
2026-05-06 17:17 50.06630 -1.46825 29235 ft 426 kts 18°
2026-05-06 17:18 50.09450 -1.45491 28678 ft 421 kts 17°
2026-05-06 17:18 50.12231 -1.44186 28124 ft 415 kts 17°
2026-05-06 17:18 50.14981 -1.42888 27596 ft 410 kts 17°
2026-05-06 17:18 50.16779 -1.42030 27247 ft 406 kts 18°
2026-05-06 17:19 50.19456 -1.40730 26741 ft 401 kts 17°
2026-05-06 17:19 50.22103 -1.39426 26245 ft 396 kts 18°
2026-05-06 17:19 50.24711 -1.38132 25753 ft 391 kts 17°
2026-05-06 17:19 50.27284 -1.36856 25287 ft 386 kts 18°
2026-05-06 17:20 50.29823 -1.35598 24825 ft 381 kts 17°
2026-05-06 17:20 50.32336 -1.34355 24356 ft 376 kts 17°
2026-05-06 17:20 50.34811 -1.33130 23900 ft 372 kts 17°
2026-05-06 17:20 50.37267 -1.31918 23415 ft 368 kts 17°
2026-05-06 17:21 50.39697 -1.30718 22899 ft 364 kts 17°
2026-05-06 17:21 50.42091 -1.29534 22439 ft 359 kts 17°
2026-05-06 17:21 50.44465 -1.28360 21978 ft 355 kts 17°
2026-05-06 17:21 50.46814 -1.27198 21504 ft 352 kts 17°
2026-05-06 17:22 50.49116 -1.25927 21038 ft 350 kts 24°
2026-05-06 17:22 50.51230 -1.24085 20569 ft 348 kts 34°
2026-05-06 17:22 50.53119 -1.21724 20107 ft 346 kts 39°
2026-05-06 17:22 50.54957 -1.19295 19640 ft 344 kts 39°
2026-05-06 17:23 50.56789 -1.16885 19178 ft 343 kts 39°
2026-05-06 17:23 50.58615 -1.14488 18725 ft 341 kts 39°
2026-05-06 17:23 50.60433 -1.12095 18263 ft 340 kts 39°
2026-05-06 17:23 50.62240 -1.09712 17771 ft 338 kts 40°
2026-05-06 17:24 50.64035 -1.07344 17328 ft 335 kts 40°
2026-05-06 17:24 50.65783 -1.04948 16885 ft 332 kts 45°
2026-05-06 17:24 50.67294 -1.02212 16458 ft 330 kts 50°
2026-05-06 17:24 50.68741 -0.99424 16031 ft 327 kts 50°
2026-05-06 17:25 50.70177 -0.96652 15610 ft 326 kts 50°
2026-05-06 17:25 50.71609 -0.93891 15190 ft 324 kts 50°
2026-05-06 17:25 50.73036 -0.91141 14763 ft 323 kts 51°
2026-05-06 17:25 50.74456 -0.88400 14325 ft 322 kts 51°
2026-05-06 17:26 50.75867 -0.85669 13917 ft 321 kts 51°
2026-05-06 17:26 50.77278 -0.82933 13461 ft 321 kts 51°
2026-05-06 17:26 50.78680 -0.80210 13082 ft 317 kts 51°
2026-05-06 17:26 50.80033 -0.77540 12927 ft 306 kts 54°
2026-05-06 17:27 50.81035 -0.74648 12941 ft 298 kts 68°
2026-05-06 17:27 50.81577 -0.71509 12945 ft 296 kts 79°
2026-05-06 17:27 50.81951 -0.68307 12950 ft 296 kts 79°
2026-05-06 17:27 50.82323 -0.65111 12953 ft 296 kts 79°
2026-05-06 17:28 50.82694 -0.61916 12956 ft 295 kts 79°
2026-05-06 17:28 50.83061 -0.58728 12758 ft 293 kts 79°
2026-05-06 17:28 50.83427 -0.55556 12377 ft 293 kts 79°
2026-05-06 17:28 50.83793 -0.52392 12020 ft 291 kts 79°
2026-05-06 17:29 50.84156 -0.49248 11641 ft 290 kts 79°
2026-05-06 17:29 50.84519 -0.46108 11270 ft 290 kts 78°
2026-05-06 17:29 50.84881 -0.42977 10893 ft 288 kts 78°
2026-05-06 17:29 50.85238 -0.39862 10522 ft 288 kts 79°
2026-05-06 17:30 50.85594 -0.36742 10136 ft 288 kts 78°
2026-05-06 17:30 50.85949 -0.33632 9754 ft 287 kts 78°
2026-05-06 17:30 50.86301 -0.30534 9362 ft 286 kts 78°
2026-05-06 17:30 50.86647 -0.27449 8982 ft 284 kts 78°
2026-05-06 17:31 50.86989 -0.24386 8585 ft 282 kts 78°
2026-05-06 17:31 50.87331 -0.21340 8196 ft 280 kts 78°
2026-05-06 17:31 50.87670 -0.18320 7967 ft 277 kts 78°
2026-05-06 17:31 50.87998 -0.15396 7971 ft 262 kts 78°
2026-05-06 17:32 50.88306 -0.12648 7972 ft 249 kts 78°
2026-05-06 17:32 50.88608 -0.09961 7946 ft 247 kts 78°
2026-05-06 17:32 50.89170 -0.07359 7273 ft 256 kts 53°
2026-05-06 17:32 50.90487 -0.05563 7020 ft 246 kts 22°
2026-05-06 17:33 50.92095 -0.04983 6951 ft 234 kts 356°
2026-05-06 17:33 50.93614 -0.05784 6961 ft 234 kts 324°
2026-05-06 17:33 50.94688 -0.07708 6962 ft 236 kts 304°
2026-05-06 17:33 50.95540 -0.09945 6962 ft 237 kts 301°
2026-05-06 17:34 50.96361 -0.12212 6965 ft 237 kts 301°
2026-05-06 17:34 50.97170 -0.14497 6927 ft 238 kts 301°
2026-05-06 17:34 50.97984 -0.16777 6677 ft 236 kts 301°
2026-05-06 17:34 50.98790 -0.19037 6432 ft 234 kts 301°
2026-05-06 17:35 50.99589 -0.21291 6173 ft 233 kts 301°
2026-05-06 17:35 51.00347 -0.23515 6033 ft 233 kts 295°
2026-05-06 17:35 51.00681 -0.26049 5997 ft 237 kts 278°
2026-05-06 17:36 51.00935 -0.31280 5631 ft 237 kts 276°
2026-05-06 17:36 51.01049 -0.33882 5340 ft 236 kts 276°
2026-05-06 17:36 51.01161 -0.36477 5027 ft 235 kts 276°
2026-05-06 17:36 51.01273 -0.39062 4720 ft 234 kts 276°
2026-05-06 17:37 51.01383 -0.41638 4404 ft 234 kts 276°
2026-05-06 17:37 51.01526 -0.44204 4084 ft 232 kts 283°
2026-05-06 17:37 51.02238 -0.46421 3810 ft 225 kts 317°
2026-05-06 17:37 51.03548 -0.47718 3553 ft 224 kts 338°
2026-05-06 17:38 51.04996 -0.48631 3300 ft 223 kts 341°
2026-05-06 17:38 51.06453 -0.49493 3067 ft 223 kts 343°
2026-05-06 17:38 51.07974 -0.49705 2983 ft 220 kts 10°
2026-05-06 17:38 51.09408 -0.48897 2993 ft 220 kts 31°
2026-05-06 17:39 51.10543 -0.47273 2995 ft 220 kts 53°
2026-05-06 17:39 51.11171 -0.45147 2990 ft 207 kts 75°
2026-05-06 17:39 51.11472 -0.42985 2970 ft 195 kts 76°
2026-05-06 17:39 51.11763 -0.40917 2819 ft 187 kts 76°
2026-05-06 17:40 51.12041 -0.38942 2577 ft 180 kts 76°
2026-05-06 17:40 51.12309 -0.37034 2340 ft 174 kts 76°
2026-05-06 17:40 51.12569 -0.35176 2111 ft 170 kts 76°
2026-05-06 17:40 51.12822 -0.33368 1876 ft 164 kts 76°
2026-05-06 17:41 51.13065 -0.31626 1672 ft 159 kts 77°
2026-05-06 17:41 51.13303 -0.29921 1466 ft 157 kts 77°
2026-05-06 17:41 51.13532 -0.28274 1244 ft 148 kts 77°
2026-05-06 17:41 51.13753 -0.26684 1035 ft 146 kts 77°
2026-05-06 17:42 51.13971 -0.25115 823 ft 145 kts 76°
2026-05-06 17:42 51.14191 -0.23530 630 ft 147 kts 76°
2026-05-06 17:42 51.14405 -0.21938 407 ft 147 kts 75°
2026-05-06 17:42 51.14629 -0.20369 236 ft 140 kts 73°
2026-05-06 17:43 51.14839 -0.18893 372 ft 152 kts 75°
2026-05-06 17:43 51.15089 -0.17061 1040 ft 187 kts 79°
2026-05-06 17:43 51.15360 -0.14904 1740 ft 206 kts 78°
2026-05-06 17:43 51.15392 -0.12628 2623 ft 210 kts 102°
2026-05-06 17:44 51.14683 -0.10641 2916 ft 210 kts 136°
2026-05-06 17:44 51.13378 -0.09653 3002 ft 212 kts 171°
2026-05-06 17:44 51.11901 -0.09510 3010 ft 213 kts 179°
2026-05-06 17:44 51.10449 -0.09720 3004 ft 214 kts 200°
2026-05-06 17:45 51.09238 -0.11050 3016 ft 213 kts 226°
2026-05-06 17:45 51.08252 -0.12798 3012 ft 213 kts 231°
2026-05-06 17:45 51.07298 -0.14608 3009 ft 214 kts 231°
2026-05-06 17:45 51.06303 -0.16516 3011 ft 232 kts 231°
2026-05-06 17:46 51.05263 -0.18518 3006 ft 236 kts 231°
2026-05-06 17:46 51.04219 -0.20539 3005 ft 237 kts 231°
2026-05-06 17:46 51.03186 -0.22569 3002 ft 236 kts 236°
2026-05-06 17:46 51.02602 -0.24963 3004 ft 234 kts 262°
2026-05-06 17:47 51.02389 -0.27526 3001 ft 234 kts 266°
2026-05-06 17:47 51.02225 -0.30087 3001 ft 233 kts 266°
2026-05-06 17:47 51.02066 -0.32657 2998 ft 233 kts 266°
2026-05-06 17:47 51.01907 -0.35222 2998 ft 234 kts 266°
2026-05-06 17:48 51.01755 -0.37791 2996 ft 234 kts 266°
2026-05-06 17:48 51.01605 -0.40364 2992 ft 234 kts 266°
2026-05-06 17:48 51.01749 -0.42892 2987 ft 230 kts 294°
2026-05-06 17:48 51.02693 -0.44867 2989 ft 225 kts 327°
2026-05-06 17:49 51.04111 -0.45863 2994 ft 224 kts 344°
2026-05-06 17:49 51.05607 -0.46553 2992 ft 223 kts 346°
2026-05-06 17:49 51.07106 -0.47211 2993 ft 224 kts 346°
2026-05-06 17:49 51.08631 -0.47562 2989 ft 221 kts
2026-05-06 17:50 51.10066 -0.46769 2993 ft 220 kts 34°
2026-05-06 17:50 51.11086 -0.44979 2996 ft 221 kts 62°
2026-05-06 17:50 51.11536 -0.42633 2963 ft 223 kts 76°
2026-05-06 17:50 51.11863 -0.40250 2724 ft 218 kts 76°
2026-05-06 17:51 51.12186 -0.37921 2453 ft 215 kts 76°
2026-05-06 17:51 51.12510 -0.35598 2165 ft 214 kts 76°
2026-05-06 17:51 51.12833 -0.33290 1873 ft 210 kts 77°
2026-05-06 17:51 51.13139 -0.31091 1601 ft 198 kts 77°
2026-05-06 17:52 51.13425 -0.29037 1354 ft 182 kts 77°
2026-05-06 17:52 51.13683 -0.27186 1128 ft 159 kts 76°
2026-05-06 17:52 51.13902 -0.25605 883 ft 143 kts 76°
2026-05-06 17:52 51.14112 -0.24096 687 ft 139 kts 75°
2026-05-06 17:53 51.14316 -0.22629 497 ft 137 kts 74°
2026-05-06 17:53 51.14522 -0.21153 311 ft 136 kts 74°
2026-05-06 17:53 51.14727 -0.19727 222 ft 122 kts 76°
2026-05-06 17:53 51.14875 -0.18619 208 ft 79 kts 78°
2026-05-06 17:54 51.14965 -0.18012 212 ft 35 kts 69°
2026-05-06 17:54 51.15070 -0.17777 207 ft 17 kts 39°
2026-05-06 17:54 51.15125 -0.17760 206 ft 0 kts 353°
2026-05-06 17:55 51.15133 -0.17762 206 ft 5 kts 352°
2026-05-06 17:55 51.15190 -0.17780 205 ft 11 kts 346°
2026-05-06 17:55 51.15261 -0.17729 212 ft 15 kts 80°
2026-05-06 17:55 51.15287 -0.17566 205 ft 0 kts 78°
2026-05-06 17:59 51.15291 -0.17541 214 ft 6 kts 79°
2026-05-06 17:59 51.15300 -0.17459 210 ft 6 kts 81°
2026-05-06 18:00 51.15302 -0.17434 215 ft 5 kts 82°
2026-05-06 18:00 51.15309 -0.17331 205 ft 13 kts 84°
2026-05-06 18:00 51.15328 -0.17165 209 ft 18 kts 77°
2026-05-06 18:00 51.15357 -0.16950 205 ft 22 kts 78°
2026-05-06 18:01 51.15391 -0.16698 209 ft 23 kts 76°
2026-05-06 18:01 51.15411 -0.16569 208 ft 11 kts 75°
2026-05-06 18:01 51.15463 -0.16523 205 ft 6 kts
2026-05-06 18:01 51.15468 -0.16506 213 ft 0 kts 58°
2026-05-06 18:02 51.15479 -0.16485 211 ft 5 kts 51°
2026-05-06 18:02 51.15488 -0.16441 211 ft 3 kts 75°
2026-05-06 18:02 51.15489 -0.16439 211 ft 0 kts 75°